Weather History for Pensacola NAS, FL

Change the Weather History Date:

Wednesday, December 19, 2012

  Actual Average Record
Temperature  
Mean Temperature 56 °F -  
Max Temperature 71 °F 60 °F 75 °F (1998)
Min Temperature 42 °F 41 °F 24 °F (1996)
Degree Days  
Heating Degree Days 8    
Growing Degree Days 6 (Base 50)    
Moisture  
Dew Point 56 °F    
Average Humidity 84    
Maximum Humidity 100    
Minimum Humidity 55    
Precipitation  
Precipitation 0.00 in - - ()
Sea Level Pressure  
Sea Level Pressure 30.02 in    
Wind  
Wind Speed 5 mph (SE)    
Max Wind Speed 13 mph    
Max Gust Speed -    
Visibility 10 miles    
Events Rain    
Averages and records for this station are not official NWS values.
T = Trace of Precipitation, MM = Missing Value Source: NWS Daily Summary

Daily Weather History Graph

Daily Weather History Graph

Search for Another Location

Airport:

Trip Planner

Search our weather history database for the weather conditions in past years. The results will help you decide how hot, cold, wet, or windy it might be!

Date:

Astronomy

Dec. 19, 2012 Rise Set
Actual Time 6:41 AM CST 4:52 PM CST
Civil Twilight 6:14 AM CST 5:18 PM CST
Nautical Twilight 5:44 AM CST 5:48 PM CST
Astronomical Twilight 5:15 AM CST 6:18 PM CST
Moon 11:17 AM CST 11:50 PM CST
Length of Visible Light 11h 04m
Length of Day
10h 11m
Waxing Crescent, 45% of the Moon is Illuminated
Dec 19
Waxing Crescent
Dec 19
First Quarter
Dec 28
Full
Jan 4
Last Quarter
Jan 11
New

Hourly Weather History & Observations

Time (CST) Temp. Dew Point Humidity Pressure Visibility Wind Dir Wind Speed Gust Speed Precip Events Conditions
12:56 AM 43.0 °F 42.1 °F 97% 30.04 in 10.0 mi Calm Calm - 0.00 in   Clear
1:56 AM 42.1 °F 41.0 °F 96% 30.03 in 10.0 mi Calm Calm - 0.00 in   Clear
2:56 AM 42.1 °F 42.1 °F 100% 30.03 in 10.0 mi Calm Calm - N/A   Clear
3:56 AM 42.1 °F 42.1 °F 100% 30.03 in 10.0 mi Calm Calm - 0.00 in Rain Light Rain
4:56 AM 43.0 °F 42.1 °F 97% 30.03 in 10.0 mi Calm Calm - 0.00 in   Clear
5:56 AM 42.1 °F 42.1 °F 100% 30.05 in 10.0 mi Calm Calm - N/A   Scattered Clouds
6:56 AM 42.1 °F 41.0 °F 96% 30.06 in 10.0 mi Calm Calm - N/A   Partly Cloudy
7:56 AM 53.1 °F 51.1 °F 93% 30.08 in 10.0 mi Calm Calm - N/A   Clear
8:56 AM 62.1 °F 57.0 °F 84% 30.09 in 10.0 mi ENE 3.5 mph - N/A   Clear
9:56 AM 70.0 °F 54.0 °F 57% 30.10 in 10.0 mi SSE 10.4 mph - N/A   Clear
10:56 AM 70.0 °F 54.0 °F 57% 30.09 in 10.0 mi SSE 10.4 mph - N/A   Clear
11:56 AM 71.1 °F 54.0 °F 55% 30.06 in 10.0 mi SSE 9.2 mph - N/A   Partly Cloudy
12:56 PM 71.1 °F 55.0 °F 57% 30.04 in 10.0 mi SSE 11.5 mph - N/A   Partly Cloudy
1:56 PM 71.1 °F 55.9 °F 59% 30.02 in 10.0 mi SSE 11.5 mph - N/A   Partly Cloudy
2:56 PM 70.0 °F 57.0 °F 63% 30.01 in 10.0 mi SSE 10.4 mph - N/A   Partly Cloudy
3:56 PM 68.0 °F 57.9 °F 70% 30.01 in 10.0 mi SE 10.4 mph - N/A   Scattered Clouds
4:56 PM 64.9 °F 60.1 °F 84% 30.00 in 10.0 mi SE 8.1 mph - N/A   Mostly Cloudy
5:56 PM 64.9 °F 60.1 °F 84% 30.00 in 10.0 mi SE 8.1 mph - N/A   Mostly Cloudy
6:56 PM 66.0 °F 62.1 °F 87% 30.00 in 10.0 mi SSE 10.4 mph - N/A   Mostly Cloudy
7:56 PM 66.9 °F 63.0 °F 87% 29.99 in 10.0 mi SSE 9.2 mph - N/A   Overcast
8:45 PM 68.0 °F 64.4 °F 88% 29.99 in 10.0 mi SE 11.5 mph - N/A   Overcast
8:56 PM 68.0 °F 64.0 °F 87% 29.99 in 10.0 mi SE 10.4 mph - N/A   Overcast
9:03 PM 68.0 °F 64.4 °F 88% 29.98 in 10.0 mi SE 12.7 mph - N/A   Mostly Cloudy
9:30 PM 68.0 °F 64.4 °F 88% 29.98 in 10.0 mi SE 12.7 mph - N/A   Mostly Cloudy
9:56 PM 68.0 °F 64.9 °F 90% 29.98 in 10.0 mi SE 12.7 mph - N/A   Overcast
10:15 PM 68.0 °F 66.2 °F 94% 29.97 in 10.0 mi SE 11.5 mph - N/A   Overcast
10:29 PM 68.0 °F 66.2 °F 94% 29.98 in 10.0 mi SSE 10.4 mph - N/A   Overcast
10:56 PM 68.0 °F 66.0 °F 93% 29.97 in 10.0 mi SE 12.7 mph - N/A   Overcast
11:44 PM 68.0 °F 66.2 °F 94% 29.95 in 10.0 mi SSE 9.2 mph - N/A   Overcast
11:56 PM 68.0 °F 66.0 °F 93% 29.95 in 10.0 mi SSE 11.5 mph - N/A   Overcast